IRIDIUM 13

Last updated on Wed Nov 29 2017 00:19:02 GMT+0000 (Coordinated Universal Time)

1 24840U 97030E 17332.33557853 .00000150 00000-0 46654-4 0 9997 2 24840 86.3957 281.5522 0002858 94.4534 265.6989 14.34218173 70506
UTC large
Height (km)
Speed (km/s)
/
Latitude / Longitude
Inclination (degrees)
Orbital Period (minutes)
Azimuth
Elevation
Range (km)
Doppler Factor

Next 0 passes for location: London (51.5072 / 0.1276)

Sorry there are no passes over London.